SCP
0 0 0 0 0 0 0 0 0 0 0 0 0 0 0 0 0 0 0 0 0 0 0 0 0 0 0 0 0 0 0 0 0 0 0 0 0 0 0 0 0 0 0
0 0 0 0 0 0 0 0 0 0 0 0 0 0 0 0 0 0 0 0 0 0 0 0 0 0 0 0 0 0 0 0 0 0 0 0 0 0 0 0 0 0 0
0 0 0 0 0 0 0 0 0 0 0 0 0 0 0 0 0 0 0 0 0 0 0 0 0 0 0 0 0 0 0 0 0 0 0 0 0 0 0 0 0 0 0
1 1 0 0 0 0 0 0 0 0 0 0 0 0 0 0 0 0 0 0 0 0 0 0 0 0 0 0 0 0 0 0 0 0 0 0 0 0 0 0 0 0 0
1 1 0 0 0 0 0 0 0 0 0 0 0 0 0 0 0 0 0 0 0 0 0 0 0 0 0 0 0 0 0 0 0 0 0 0 0 0 0 0 0 0 0
1 1 0 0 0 0 0 0 0 0 0 0 0 0 0 0 0 0 0 0 0 0 0 0 0 0 0 0 0 0 0 0 0 0 0 0 0 0 0 0 0 0 0
1 1 0 0 0 0 0 0 0 0 0 0 0 0 0 0 0 0 0 0 0 0 0 0 0 0 0 0 0 0 0 0 0 0 0 0 0 0 0 0 0 0 0
1 1 1 0 0 0 0 0 0 0 0 0 0 0 0 0 0 0 0 0 0 0 0 0 0 0 0 0 0 0 0 0 0 0 0 0 0 0 0 0 0 0 0
1 1 1 1 1 0 0 0 0 0 0 0 0 0 0 0 0 0 0 0 0 0 0 0 0 0 0 0 0 0 0 0 0 0 0 0 0 0 0 0 0 0 0
1 1 1 1 1 1 0 0 0 0 0 0 0 0 0 0 0 0 0 0 0 0 0 0 0 0 0 0 0 0 0 0 0 0 0 0 0 0 0 0 0 0 0
1 1 1 1 1 0 0 0 0 0 0 0 0 0 0 0 0 0 0 0 0 0 0 0 0 0 0 0 0 0 0 0 0 0 0 0 0 0 0 0 0 0 0
0 0 0 0 0 0 0 0 0 0 0 0 0 0 0 0 0 0 0 0 0 0 0 0 0 0 0 0 0 0 0 0 0 0 0 0 0 0 0 0 0 0 0
0 0 0 0 0 0 0 0 0 0 0 0 0 0 0 0 0 0 0 0 0 0 0 0 0 0 0 0 0 0 0 0 0 0 0 0 0 0 0 0 0 0 0
0 0 0 0 0 0 0 0 0 0 0 0 0 0 0 0 0 0 0 0 0 0 0 0 0 0 0 0 0 0 0 0 0 0 0 0 0 0 0 0 0 0 0
0 0 0 0 0 0 0 0 0 0 0 0 0 0 0 0 0 0 0 0 0 0 0 0 0 0 0 0 0 0 0 0 0 0 0 0 0 0 0 0 0 0 0
0 0 0 0 0 0 0 0 0 0 0 0 0 0 0 0 0 0 0 0 0 0 0 0 0 0 0 0 0 0 0 0 0 0 0 0 0 0 0 0 0 0 0
0 0 0 0 0 0 0 0 0 0 0 0 0 0 0 0 0 0 0 0 0 0 0 0 0 0 0 0 0 0 0 0 0 0 0 0 0 0 0 0 0 0 0
0 0 0 0 0 0 0 0 0 0 0 0 0 0 0 0 0 0 0 0 0 0 0 0 0 0 0 0 0 0 0 0 0 0 0 0 0 0 0 0 0 0 0
0 0 0 0 0 0 0 0 0 0 0 0 0 0 0 0 0 0 0 0 0 0 0 0 0 0 0 0 0 0 0 0 0 0 0 0 0 0 0 0 0 0 0
0 0 0 0 0 0 0 0 0 0 0 0 0 0 0 0 0 0 0 0 0 0 0 0 0 0 0 0 0 0 0 0 0 0 0 0 0 0 0 0 0 0 0
0 0 0 0 0 0 0 0 0 0 0 0 0 0 0 0 0 0 0 0 0 0 0 0 0 0 0 0 0 0 0 0 0 0 0 0 0 0 0 0 0 0 0
0 0 0 0 0 0 0 0 0 0 0 0 0 0 0 0 0 0 0 0 0 0 0 0 0 0 0 0 0 0 0 0 0 0 0 0 0 0 0 0 0 0 0
0 0 0 0 0 0 0 0 0 0 0 0 0 0 0 0 0 0 0 0 0 0 0 0 0 0 0 0 0 0 0 0 0 0 0 0 0 0 0 0 0 0 0
0 0 0 0 0 0 0 0 0 0 0 0 0 0 0 0 0 0 0 0 0 0 0 0 0 0 0 0 0 0 0 0 0 0 0 0 0 0 0 0 0 0 0
0 0 0 0 0 0 0 0 0 0 0 0 0 0 0 0 0 0 0 0 0 0 0 0 0 0 0 0 0 0 0 0 0 0 0 0 0 0 0 0 0 0 0
0 0 0 0 0 0 0 0 0 0 0 0 0 0 0 0 0 0 0 0 0 0 0 0 0 0 0 0 0 0 0 0 0 0 0 0 0 0 0 0 0 0 0
Wind_Speed
9 8 8 8 7 7 7 7 7 6 7 7 7 7 6 6 6 5 4 4 5 4 3 4 4 3 2 2 1 2 2 3 3 4 3 2 2 3 3 3 5 5 5
9 8 8 8 7 7 7 7 7 7 7 7 7 7 7 7 6 6 6 5 5 5 5 4 5 4 4 3 2 2 2 3 4 4 3 3 4 4 4 4 5 5 5
8 8 8 8 8 8 8 7 7 8 7 7 7 8 7 7 7 7 7 6 6 6 6 6 6 5 5 4 4 4 3 3 3 4 4 3 3 3 3 4 4 4 5
9 9 9 9 8 8 7 7 8 8 8 8 8 8 7 7 7 7 6 6 6 6 6 6 6 6 7 6 5 5 4 4 3 3 4 4 4 4 2 3 4 3 4
10 9 9 8 7 7 6 6 7 8 9 8 7 7 7 6 7 7 7 7 6 6 6 6 7 8 9 8 6 6 5 4 4 4 4 4 4 3 4 3 4 4 4
10 10 9 8 8 8 8 7 7 6 6 7 7 8 8 7 9 12 9 7 6 7 6 6 6 7 10 12 12 11 9 7 6 5 5 6 7 6 4 4 4 3 5
9 8 8 9 9 9 9 8 8 7 6 6 7 7 8 8 11 12 13 8 7 7 7 6 6 6 7 6 9 11 11 13 12 8 8 9 8 7 5 5 5 6 7
8 7 6 7 7 7 6 7 7 5 6 6 6 6 6 7 10 10 11 8 6 6 7 7 7 7 6 6 6 6 7 8 10 9 9 10 10 8 7 8 7 6 6
6 6 6 6 6 6 6 6 5 5 5 5 4 5 5 5 8 9 8 4 5 6 6 6 6 7 8 8 5 6 7 8 10 12 13 14 15 15 11 4 4 4 6
5 5 4 5 5 5 5 4 4 4 5 5 4 4 5 5 6 7 8 4 5 5 5 5 7 7 8 7 5 6 8 9 7 7 8 10 11 13 14 10 8 7 6
4 4 3 4 4 4 3 3 2 2 3 4 4 4 4 5 5 8 9 5 5 5 5 4 4 6 7 8 7 7 11 10 6 6 7 7 7 7 8 9 9 9 9
3 3 2 2 3 4 4 3 3 3 3 3 2 2 2 3 4 6 8 8 6 4 4 3 3 5 7 8 7 9 13 9 5 5 6 7 7 8 8 8 9 11 11
5 4 2 2 1 2 3 3 2 2 3 3 2 3 2 2 2 3 5 6 7 4 3 5 6 7 7 7 9 12 9 5 5 6 7 8 8 8 7 6 7 8 9
6 4 4 3 3 2 1 1 2 2 2 2 3 3 2 2 2 1 2 2 3 3 3 4 6 7 7 8 8 7 5 5 6 7 7 7 6 6 6 6 7 6 6
5 4 4 3 2 2 2 1 1 2 3 4 3 3 3 3 4 4 2 2 2 2 2 1 2 3 4 4 4 5 4 4 5 5 6 6 6 6 7 6 6 5 6
5 4 3 2 2 2 2 3 3 2 2 3 4 3 3 5 4 4 4 3 4 3 2 2 3 4 5 5 5 5 4 5 5 5 5 6 6 6 7 6 5 6 8
4 3 2 2 2 2 1 1 2 4 4 2 3 5 6 5 5 4 3 3 3 3 2 3 4 4 5 5 5 5 5 5 4 4 5 6 6 6 6 6 6 6 7
4 3 3 2 2 1 1 1 0 1 2 3 3 2 4 5 5 3 1 0 1 1 2 3 4 4 5 5 5 5 5 5 4 5 5 5 5 6 6 7 7 7 7
3 2 2 2 2 1 1 1 1 1 1 2 2 3 2 2 2 2 2 2 2 3 3 4 4 5 5 5 4 5 5 5 5 5 5 6 6 6 7 7 7 9 8
3 4 3 2 2 2 2 2 1 1 1 1 1 2 1 1 1 1 2 2 3 4 4 4 4 5 4 4 4 5 5 5 5 5 6 6 6 6 7 8 7 7 7
3 3 5 3 2 2 2 2 1 1 1 1 1 2 2 0 1 3 2 3 3 4 4 4 4 5 5 4 4 5 6 6 6 6 6 6 6 7 7 7 7 8 7
3 3 2 2 2 2 2 2 1 1 1 2 2 2 3 1 1 2 2 3 3 3 4 4 4 4 4 4 5 5 6 6 6 6 7 7 7 7 7 7 7 7 7
3 3 3 3 2 3 3 2 2 2 2 1 2 2 2 2 2 3 3 4 4 4 4 4 5 5 4 4 4 5 6 6 6 6 7 7 7 7 7 8 9 9 8
3 3 3 3 3 3 2 2 2 2 2 2 2 2 2 2 3 4 4 4 4 5 5 4 5 6 8 6 5 5 5 6 6 6 8 8 9 8 8 8 9 9 9
3 3 3 3 3 3 3 3 3 3 3 2 2 2 3 3 4 4 4 4 5 5 7 6 5 6 8 8 8 6 7 9 8 7 7 7 9 10 9 10 9 9 8
3 3 3 3 3 3 3 3 3 3 3 3 3 3 3 4 4 4 4 4 5 5 6 6 7 8 9 8 9 10 9 9 8 8 7 7 8 8 9 8 10 9 8
Wind_Direction
181 181 178 178 179 174 175 179 179 177 172 172 173 171 171 172 169 164 174 173 182 197 197 190 208 202 200 200 167 157 164 160 207 267 267 279 285 281 280 260 256 251 255
185 182 180 178 175 176 180 181 175 174 175 176 174 175 181 182 180 179 189 190 192 202 210 204 218 214 214 217 204 206 205 192 194 246 274 278 268 265 265 267 262 253 249
181 182 183 182 180 184 184 178 175 175 178 179 177 181 186 186 188 193 195 197 201 207 209 209 217 208 219 222 217 219 223 219 199 217 255 258 267 270 279 281 274 270 264
180 183 189 189 188 188 185 182 181 178 179 183 185 188 189 189 193 198 199 203 209 213 212 212 213 208 216 220 222 223 222 227 225 228 250 261 264 270 259 268 285 274 270
178 184 191 189 185 184 185 190 190 186 188 186 187 192 193 193 201 200 205 210 213 220 223 221 221 220 219 217 219 217 213 220 226 233 249 261 262 263 252 246 259 272 272
179 188 188 186 185 191 191 191 187 188 192 186 193 196 200 208 209 204 201 210 211 217 227 233 237 234 235 232 232 225 210 213 222 229 240 242 251 244 245 244 248 263 278
181 189 189 189 191 196 195 188 191 193 191 192 198 197 206 216 213 210 208 204 211 216 221 229 242 240 234 235 243 245 239 233 224 221 234 244 248 241 235 247 241 237 247
174 182 183 183 190 192 189 192 197 193 195 199 204 206 209 221 216 217 218 215 220 224 223 223 231 243 241 231 237 247 248 246 237 231 233 245 246 243 230 236 245 253 258
171 182 184 184 185 181 189 196 192 188 194 199 199 203 208 223 218 219 213 213 230 239 238 236 234 241 250 243 237 248 259 262 256 244 238 244 247 248 242 239 244 243 263
177 179 177 172 170 178 190 197 188 189 194 190 198 205 209 218 216 214 207 209 230 244 250 247 240 242 254 251 237 243 256 262 265 271 259 258 256 257 249 232 230 238 248
150 143 145 158 162 168 171 175 167 173 183 190 198 212 215 218 215 212 206 207 223 236 245 247 242 247 258 263 253 244 252 259 267 263 265 265 261 256 253 240 227 227 236
97 101 116 142 161 154 153 164 163 161 172 198 210 230 234 229 219 214 208 211 213 222 242 248 246 260 270 273 265 257 264 270 262 261 263 264 262 260 257 248 239 235 235
87 84 81 80 109 127 146 155 152 162 179 191 194 213 234 236 220 205 204 213 218 220 244 261 274 279 282 277 269 271 273 262 252 255 261 263 259 260 262 260 257 250 249
75 68 65 66 55 47 67 124 156 172 184 196 204 213 225 234 231 202 186 201 226 239 262 279 285 284 278 272 279 279 263 250 249 255 260 264 268 268 266 261 263 263 263
70 62 59 65 69 56 43 40 176 208 200 197 207 200 194 217 232 210 190 203 211 220 239 274 284 289 288 284 280 274 271 271 263 259 262 270 272 270 269 263 257 258 253
66 53 48 46 47 43 44 11 3 323 285 235 220 209 220 223 225 217 226 240 246 226 193 250 262 264 266 273 279 284 279 272 267 265 265 265 268 270 272 268 259 255 258
57 43 38 35 37 32 40 39 353 342 342 295 250 237 234 244 254 257 271 292 274 199 206 250 258 261 263 265 265 267 272 273 270 271 272 273 272 271 269 269 266 262 262
39 32 32 17 8 5 357 344 339 323 335 329 319 274 251 250 255 257 237 104 302 238 233 248 255 259 261 263 266 269 275 281 280 279 278 276 273 274 275 272 267 263 265
26 13 13 6 3 6 1 2 350 340 303 292 316 332 319 276 272 244 178 188 236 256 254 252 254 258 260 261 265 269 270 272 273 275 276 277 276 275 275 272 269 268 264
8 6 10 8 359 0 358 353 334 324 314 317 320 310 327 34 349 294 231 235 244 253 257 261 264 263 264 267 271 272 272 271 274 273 274 276 277 275 275 275 272 271 267
8 1 4 7 0 349 343 334 324 330 330 322 307 326 4 326 281 289 282 263 257 261 264 265 269 270 268 270 272 273 273 274 273 273 276 278 279 279 277 274 272 271 270
6 1 0 351 344 353 351 350 357 357 351 342 326 340 2 3 316 307 299 290 279 269 267 266 269 267 265 269 273 276 277 278 280 282 281 279 277 278 278 277 278 276 272
10 8 6 358 356 2 4 0 356 348 342 336 336 341 342 330 317 311 306 304 302 298 291 283 280 280 279 274 270 270 277 280 280 283 286 286 285 284 283 281 281 281 276
20 17 11 2 0 357 349 342 340 336 328 326 327 322 314 308 308 309 307 305 306 304 299 294 287 287 289 288 281 277 275 278 283 280 281 282 285 285 284 283 281 278 276
19 16 11 2 351 344 346 346 342 340 338 334 330 324 319 316 312 310 310 308 310 308 308 308 299 297 297 298 299 297 295 289 282 282 282 279 279 280 280 280 280 280 278
15 10 1 354 352 355 357 352 345 343 337 332 327 318 314 312 310 309 310 310 312 310 308 307 305 304 305 304 303 306 301 293 285 278 276 274 274 275 279 279 281 281 280